Perpignan - Rivesaltes Airport

Airport
ICAO code: 
LFMP
IATA Code: 
PGF
Summary
ICAO Region: 
EUR
Territory: 
Location: 
Perpignan, Languedoc-Roussillon
Serving: 
Perpignan
Elevation: 
144 ft
Coordinates: 
Aerial View: 
42° 44' 40.996" N, 2° 52' 10.994" E
Metar
Observation
LFMP 270230Z AUTO 24009KT CAVOK 10/M03 Q1028
Station
Perpignan
Date/Time
2022-01-27 02:30:00
Wind direction
240°
Wind speed
09 kts
Lowest cloud amount
clouds and visibility OK
Temperature
10°C
Dew point
-3°C
Humidity
39%
QNH
1028 hPa
Weather condition
n/a

Description

International airport serving Perginan.

Climatology

Dry-summer subtropical ”Mediterranean" climate (Köppen climate classification Csa) - characterized by hot, dry summers and mild winters. During the summer, subtropical high pressure cells dominate, making rainfall unlikely except for the occasional thunderstorm. In the winter, periodic storms bring rain (snow at higher elevations).

Runways

Designator Length Width Surface Rops
13/31 1265 20 ASP Yes/Yes
15/33 2500 45 ASP Yes/Yes
Airport map: 
Aerial View: 

Accidents and Serious Incidents at or in the vicinity of LFMP

SKYbrary Partners:

Safety knowledge contributed by: